Simultaneous Nadir Overpasses (SNOs) Predictions

Prediction of SNOs near US between AQUA and NPP Satellite Orbit:

Table of predicted SNOs near US for the next 10.0 days since TLE Epoch: 11/22/2019
Index Date (AQUA) Time (AQUA) AQUA Lat,Lon Date (NPP) Time (NPP) NPP Lat,Lon Distance(km) Time Diff (sec)
1 11/25/2019 07:18:36 49.92, -75.99 11/25/2019 07:20:13 50.36, -78.20 165.60 97
2 11/25/2019 08:57:29 49.92,-100.70 11/25/2019 09:01:41 50.47,-103.53 210.07 252
3 11/27/2019 18:16:45 49.97, -80.18 11/27/2019 18:10:29 49.70, -81.74 115.75 376
4 11/27/2019 19:55:38 49.97,-104.90 11/27/2019 19:51:57 49.59,-107.07 161.00 221
5 11/27/2019 21:30:47 36.68,-124.99 11/27/2019 21:29:35 36.22,-127.57 236.48 72
6 11/30/2019 09:23:39 22.43,-113.67 11/30/2019 09:15:59 22.50,-114.14 48.75 460




NCC Satellite Simultaneous Nadir Overpasses (SNOs) Prediction Service
